User: anonymous   Login
Location: Unspecified
(0.0000°N, 0.0000°E)
Time: 01:05:18
(UTC+00:00)
Language:

STARLINK-11107 [DTC] - Orbit

View from above orbital plane
View from above orbital plane
View from above satellite
View from above satellite

Ground track
Ground track

The orbit is defined by the following mean orbital elements,

1 59708U          26144.88341399 +.00000000 +00000-0 +20368-4 0 00007
2 59708  53.1583 310.3572 0001062  91.7941 268.3199 15.69711221    00
Epoch (UTC): 24 May 2026 21:12:06
Eccentricity: 0.0001062
inclination: 53.1583°
perigee height: 359 km
apogee height: 360 km
right ascension of ascending node: 310.3572°
argument of perigee: 91.7941°
revolutions per day: 15.69711221
mean anomaly at epoch: 268.3199°

The dashed part of the orbit path shows where the satellite is in the earth's shadow,  

DLR